Hourly Weather Abaete

Today, 27 November, Friday

Time Temperature Precipitation Wind Pressure Humidity
00:00 +22°C° 0 mm 1 mps 707 mmHg 78%
01:00 +22°C° 0 mm 1 mps 707 mmHg 80%
02:00 +22°C° 0 mm 1 mps 707 mmHg 82%
03:00 +21°C° 0 mm 1 mps 706 mmHg 83%
04:00 +21°C° 0 mm 1 mps 707 mmHg 84%
05:00 +21°C° 0 mm 1 mps 707 mmHg 85%
06:00 +21°C° 0 mm 1 mps 708 mmHg 87%
07:00 +23°C° 0 mm 1 mps 708 mmHg 80%
08:00 +25°C° 0 mm 2 mps 709 mmHg 73%
09:00 +26°C° 0 mm 2 mps 710 mmHg 66%
10:00 +28°C° 0 mm 2 mps 709 mmHg 60%
11:00 +29°C° 0 mm 2 mps 709 mmHg 55%
12:00 +31°C° 0 mm 2 mps 709 mmHg 49%
13:00 +31°C° 0 mm 2 mps 708 mmHg 47%
14:00 +31°C° 0 mm 2 mps 708 mmHg 46%
15:00 +31°C° 0 mm 2 mps 707 mmHg 44%
16:00 +30°C° 0 mm 2 mps 707 mmHg 49%
17:00 +29°C° 0 mm 1 mps 707 mmHg 54%
18:00 +28°C° 0 mm 1 mps 706 mmHg 59%
19:00 +27°C° 0 mm 1 mps 707 mmHg 62%
20:00 +26°C° 0 mm 1 mps 707 mmHg 64%
21:00 +25°C° 0 mm 1 mps 708 mmHg 66%
22:00 +24°C° 0 mm 1 mps 708 mmHg 70%
23:00 +23°C° 0 mm 1 mps 708 mmHg 73%

Tomorrow, 28 November, Saturday

Time Temperature Precipitation Wind Pressure Humidity
00:00 +23°C° 0 mm 1 mps 708 mmHg 77%
01:00 +22°C° 0 mm 1 mps 708 mmHg 79%
02:00 +22°C° 0 mm 1 mps 707 mmHg 82%
03:00 +21°C° 0 mm 1 mps 707 mmHg 85%
04:00 +21°C° 0 mm 1 mps 708 mmHg 86%
05:00 +21°C° 0 mm 1 mps 708 mmHg 87%
06:00 +21°C° 0 mm 1 mps 708 mmHg 88%
07:00 +23°C° 0 mm 2 mps 709 mmHg 80%
08:00 +25°C° 0 mm 2 mps 709 mmHg 71%
09:00 +27°C° 0 mm 3 mps 710 mmHg 63%
10:00 +28°C° 0 mm 3 mps 710 mmHg 58%
11:00 +29°C° 0 mm 3 mps 710 mmHg 53%
12:00 +30°C° 0 mm 4 mps 710 mmHg 47%
13:00 +30°C° 0 mm 3 mps 709 mmHg 47%
14:00 +31°C° 0 mm 3 mps 708 mmHg 46%
15:00 +31°C° 0 mm 3 mps 708 mmHg 45%
16:00 +30°C° 0 mm 3 mps 708 mmHg 50%
17:00 +28°C° 0 mm 2 mps 708 mmHg 56%
18:00 +27°C° 0 mm 2 mps 708 mmHg 61%
19:00 +26°C° 0 mm 2 mps 708 mmHg 64%
20:00 +25°C° 0 mm 2 mps 708 mmHg 67%
21:00 +24°C° 0 mm 2 mps 708 mmHg 70%
22:00 +24°C° 0 mm 2 mps 708 mmHg 74%
23:00 +23°C° 0 mm 2 mps 708 mmHg 78%

Day after tomorrow, 29 November, Sunday

Time Temperature Precipitation Wind Pressure Humidity
00:00 +21°C° 0 mm 2 mps 708 mmHg 81%
01:00 +21°C° 0 mm 2 mps 708 mmHg 83%
02:00 +21°C° 0 mm 1 mps 708 mmHg 85%
03:00 +21°C° 0 mm 1 mps 708 mmHg 86%
04:00 +21°C° 0 mm 1 mps 708 mmHg 86%
05:00 +21°C° 0 mm 1 mps 708 mmHg 87%
06:00 +20°C° 0 mm 2 mps 709 mmHg 87%
07:00 +21°C° 0 mm 2 mps 709 mmHg 79%
08:00 +24°C° 0 mm 2 mps 709 mmHg 70%
09:00 +26°C° 0 mm 3 mps 710 mmHg 62%
10:00 +27°C° 0 mm 3 mps 710 mmHg 57%
11:00 +28°C° 0 mm 3 mps 709 mmHg 52%
12:00 +30°C° 0 mm 3 mps 709 mmHg 47%
13:00 +30°C° 0 mm 2 mps 709 mmHg 48%
14:00 +29°C° 0 mm 2 mps 708 mmHg 48%
15:00 +29°C° 0 mm 2 mps 707 mmHg 48%
16:00 +29°C° 0 mm 1 mps 707 mmHg 53%
17:00 +28°C° 0 mm 1 mps 707 mmHg 57%
18:00 +27°C° 0 mm 1 mps 707 mmHg 61%
19:00 +26°C° 0 mm 1 mps 707 mmHg 63%
20:00 +23°C° 0 mm 0 mps 707 mmHg 64%
21:00 +22°C° 0 mm 0 mps 708 mmHg 65%
22:00 +21°C° 0 mm 0 mps 708 mmHg 68%
23:00 +23°C° 0 mm 1 mps 707 mmHg 70%

30 November, Monday

Time Temperature Precipitation Wind Pressure Humidity
00:00 +23°C° 0 mm 1 mps 707 mmHg 72%
01:00 +22°C° 0 mm 1 mps 707 mmHg 76%
02:00 +22°C° 0 mm 1 mps 707 mmHg 79%
03:00 +21°C° 0 mm 1 mps 706 mmHg 82%
04:00 +21°C° 0 mm 1 mps 706 mmHg 84%
05:00 +21°C° 0 mm 1 mps 707 mmHg 85%
06:00 +21°C° 0 mm 1 mps 707 mmHg 87%
07:00 +23°C° 0 mm 1 mps 707 mmHg 79%
08:00 +25°C° 0 mm 2 mps 708 mmHg 72%
09:00 +27°C° 0 mm 2 mps 708 mmHg 64%
10:00 +28°C° 0 mm 2 mps 708 mmHg 60%
11:00 +29°C° 0 mm 2 mps 707 mmHg 55%
12:00 +31°C° 0 mm 2 mps 707 mmHg 50%
13:00 +31°C° 0 mm 2 mps 707 mmHg 50%
14:00 +31°C° 0 mm 2 mps 706 mmHg 50%
15:00 +31°C° 0 mm 1 mps 706 mmHg 50%
16:00 +30°C° 0 mm 1 mps 705 mmHg 54%
17:00 +29°C° 0 mm 1 mps 705 mmHg 59%
18:00 +28°C° 0 mm 1 mps 705 mmHg 63%
19:00 +27°C° 0 mm 1 mps 705 mmHg 65%
20:00 +26°C° 0 mm 1 mps 705 mmHg 67%
21:00 +25°C° 0 mm 1 mps 705 mmHg 69%
22:00 +24°C° 0 mm 1 mps 705 mmHg 71%
23:00 +24°C° 0 mm 1 mps 705 mmHg 74%

1 December, Tuesday

Time Temperature Precipitation Wind Pressure Humidity
00:00 +21°C° 0 mm 0 mps 705 mmHg 76%
01:00 +21°C° 0 mm 0 mps 705 mmHg 77%
02:00 +21°C° 0 mm 0 mps 705 mmHg 79%
03:00 +22°C° 0 mm 1 mps 704 mmHg 80%
04:00 +22°C° 0 mm 1 mps 705 mmHg 81%
05:00 +21°C° 0 mm 0 mps 705 mmHg 81%
06:00 +21°C° 0 mm 0 mps 705 mmHg 82%
07:00 +25°C° 0 mm 1 mps 706 mmHg 75%
08:00 +27°C° 0 mm 2 mps 706 mmHg 68%
09:00 +29°C° 0 mm 2 mps 707 mmHg 60%
10:00 +30°C° 0 mm 2 mps 707 mmHg 55%
11:00 +31°C° 0 mm 3 mps 707 mmHg 50%
12:00 +34°C° 0 mm 3 mps 706 mmHg 45%
13:00 +34°C° 0 mm 3 mps 706 mmHg 45%
14:00 +33°C° 0 mm 3 mps 705 mmHg 46%
15:00 +33°C° 0 mm 3 mps 705 mmHg 47%
16:00 +31°C° 0 mm 3 mps 705 mmHg 52%
17:00 +30°C° 0 mm 2 mps 705 mmHg 57%
18:00 +29°C° 0 mm 2 mps 704 mmHg 62%
19:00 +28°C° 0.1 mm 2 mps 705 mmHg 65%
20:00 +27°C° 0.1 mm 2 mps 705 mmHg 68%
21:00 +25°C° 0.1 mm 2 mps 705 mmHg 71%
22:00 +25°C° 0 mm 1 mps 705 mmHg 72%
23:00 +25°C° 0 mm 1 mps 705 mmHg 73%

2 December, Wednesday

Time Temperature Precipitation Wind Pressure Humidity
00:00 +24°C° 0 mm 1 mps 705 mmHg 74%
01:00 +24°C° 0 mm 1 mps 705 mmHg 75%
02:00 +24°C° 0 mm 1 mps 704 mmHg 76%
03:00 +21°C° 0 mm 0 mps 704 mmHg 77%
04:00 +21°C° 0 mm 0 mps 704 mmHg 78%
05:00 +21°C° 0 mm 0 mps 705 mmHg 79%
06:00 +22°C° 0 mm 0 mps 705 mmHg 80%
07:00 +23°C° 0 mm 0 mps 706 mmHg 76%
08:00 +26°C° 0 mm 1 mps 706 mmHg 71%
09:00 +27°C° 0 mm 1 mps 707 mmHg 67%
10:00 +29°C° 0.1 mm 1 mps 706 mmHg 61%
11:00 +30°C° 0.1 mm 2 mps 706 mmHg 54%
12:00 +32°C° 0.1 mm 2 mps 706 mmHg 47%
13:00 +34°C° 0 mm 2 mps 706 mmHg 46%
14:00 +34°C° 0 mm 2 mps 705 mmHg 45%
15:00 +34°C° 0 mm 2 mps 705 mmHg 44%
16:00 +32°C° 0.1 mm 2 mps 705 mmHg 50%
17:00 +31°C° 0.1 mm 2 mps 704 mmHg 56%
18:00 +29°C° 0.1 mm 2 mps 704 mmHg 63%
19:00 +28°C° 1.3 mm 1 mps 704 mmHg 70%
20:00 +26°C° 1.3 mm 1 mps 705 mmHg 77%
21:00 +23°C° 1.3 mm 0 mps 705 mmHg 84%
22:00 +25°C° 1 mm 1 mps 705 mmHg 85%
23:00 +24°C° 1 mm 1 mps 705 mmHg 85%
Show more

We Need Your Consent

Meteoprog and our Service Providers may store and access personal data such as cookies, device identifiers or other similar technologies on your device and process such data to personalise content and ads, as well as provide social media features and to analyse the traffic.

  • Store and/or access information on your device

    Cookies, device identifiers or other information can be stored or accessed on your device for the purposes indicated above.

  • Personalised ads and content, ad and content measurement, audience insights, and products development

    Ads and content can be personalised based on a profile. More data can be added to better personalise ads and content. Ad and content performance can be measured. Insights about the audience who saw the ads and content can be derived. Such data can be used to develop or improve user’s experience, systems and software.

By clicking ‘I Agree’ you will allow the use of indicated cookies, device identifiers, web beacons or other similar technologies. Your settings can be changed in the browser on your device.

For certain purposes, legitimate interests may be relied on, rather than consent. You can read more about this in our Privacy and Cookie Policy.